Location: Newark
(44.6028°N, 124.0883°W)
Time: 05:24:49
(UTC+00:00)

Vanguard 1 - Pass Details

Date: 25 October 2019
Orbit: 652 x 3831 km, 34.2° (Epoch: 18 November)

Event Time Altitude Azimuth Distance (km) Brightness Sun altitude
Rises 09:13:54 0° 270° (W) 5,989 - -53.9°
Reaches altitude 10° 09:19:31 10° 253° (WSW) 5,533 - -53.3°
Maximum altitude 09:29:15 18° 219° (SW) 5,638 - -52.3°
Drops below altitude 10° 09:41:09 10° 186° (S) 6,820 - -51.0°
Exits shadow 09:49:21 - 171° (S) 7,892 14.4 -50.0°
Sets 09:49:51 0° 170° (S) 7,959 14.5 -49.9°
